Time,TemperatureF,DewpointF,PressureIn,WindDirection,WindDirectionDegrees,WindSpeedMPH,WindSpeedGustMPH,Humidity,HourlyPrecipIn,Conditions,Clouds,dailyrainin,SoftwareType,DateUTC
2013-02-20 00:01:00,39.7,38.3,29.80,WSW,249,0.0,1.0,95,0.00,,,0.00,WUHU216DAVISVP2,2013-02-20 08:01:00,
2013-02-20 00:06:00,39.5,37.9,29.80,WSW,249,0.0,1.0,94,0.00,,,0.00,WUHU216DAVISVP2,2013-02-20 08:06:00,
2013-02-20 00:11:00,39.4,38.0,29.80,WSW,249,0.0,1.0,95,0.00,,,0.00,WUHU216DAVISVP2,2013-02-20 08:11:00,
2013-02-20 00:16:00,39.4,38.0,29.80,WSW,249,0.0,1.0,95,0.00,,,0.00,WUHU216DAVISVP2,2013-02-20 08:16:00,
2013-02-20 00:21:00,39.4,38.0,29.80,WSW,250,0.0,1.0,95,0.00,,,0.00,WUHU216DAVISVP2,2013-02-20 08:21:00,
2013-02-20 00:26:00,39.5,38.1,29.80,WSW,249,0.0,1.0,95,0.00,,,0.00,WUHU216DAVISVP2,2013-02-20 08:26:00,
2013-02-20 00:31:00,39.5,38.1,29.80,WSW,249,0.0,2.0,95,0.00,,,0.00,WUHU216DAVISVP2,2013-02-20 08:31:00,
2013-02-20 00:35:00,39.5,38.1,29.80,WSW,249,0.0,2.0,95,0.00,,,0.00,WUHU216DAVISVP2,2013-02-20 08:35:00,
2013-02-20 00:40:00,39.5,38.1,29.80,WSW,249,0.0,1.0,95,0.00,,,0.00,WUHU216DAVISVP2,2013-02-20 08:40:00,
2013-02-20 00:45:00,39.5,38.1,29.80,WSW,249,0.0,1.0,95,0.00,,,0.00,WUHU216DAVISVP2,2013-02-20 08:45:00,
2013-02-20 00:51:00,39.6,38.2,29.80,WSW,249,0.0,1.0,95,0.00,,,0.00,WUHU216DAVISVP2,2013-02-20 08:51:00,
2013-02-20 00:55:00,39.5,38.1,29.81,WSW,249,0.0,1.0,95,0.00,,,0.00,WUHU216DAVISVP2,2013-02-20 08:55:00,
2013-02-20 01:00:00,39.4,38.0,29.81,WSW,249,0.0,1.0,95,0.00,,,0.00,WUHU216DAVISVP2,2013-02-20 09:00:00,
2013-02-20 01:05:00,39.3,37.9,29.81,WSW,249,0.0,1.0,95,0.00,,,0.00,WUHU216DAVISVP2,2013-02-20 09:05:00,
2013-02-20 01:10:00,39.3,37.9,29.81,WSW,249,0.0,1.0,95,0.00,,,0.00,WUHU216DAVISVP2,2013-02-20 09:10:00,
2013-02-20 01:16:00,39.3,37.9,29.81,WSW,249,0.0,1.0,95,0.00,,,0.00,WUHU216DAVISVP2,2013-02-20 09:16:00,
2013-02-20 01:21:00,39.5,38.4,29.81,WSW,249,0.0,0.0,96,0.00,,,0.00,WUHU216DAVISVP2,2013-02-20 09:21:00,
2013-02-20 01:26:00,39.6,38.5,29.81,WSW,249,0.0,0.0,96,0.00,,,0.00,WUHU216DAVISVP2,2013-02-20 09:26:00,
2013-02-20 01:31:00,39.7,38.6,29.81,WSW,249,0.0,0.0,96,0.00,,,0.00,WUHU216DAVISVP2,2013-02-20 09:31:00,
2013-02-20 01:36:00,39.6,38.5,29.81,WSW,249,0.0,2.0,96,0.00,,,0.00,WUHU216DAVISVP2,2013-02-20 09:36:00,
2013-02-20 01:41:00,39.4,38.0,29.81,WSW,250,2.0,2.0,95,0.00,,,0.00,WUHU216DAVISVP2,2013-02-20 09:41:00,
2013-02-20 01:45:00,39.4,38.3,29.81,WSW,249,0.0,2.0,96,0.00,,,0.00,WUHU216DAVISVP2,2013-02-20 09:45:00,
2013-02-20 01:50:00,39.4,38.3,29.81,WSW,250,0.0,3.0,96,0.00,,,0.00,WUHU216DAVISVP2,2013-02-20 09:50:00,
2013-02-20 01:55:00,39.5,38.4,29.81,WSW,249,1.0,3.0,96,0.00,,,0.00,WUHU216DAVISVP2,2013-02-20 09:55:00,
2013-02-20 02:00:00,39.5,38.4,29.81,WSW,249,0.0,2.0,96,0.00,,,0.00,WUHU216DAVISVP2,2013-02-20 10:00:00,
2013-02-20 02:06:00,39.6,38.2,29.81,West,279,2.0,4.0,95,0.00,,,0.00,WUHU216DAVISVP2,2013-02-20 10:06:00,
2013-02-20 02:11:00,39.6,38.2,29.81,West,279,2.0,4.0,95,0.00,,,0.00,WUHU216DAVISVP2,2013-02-20 10:11:00,
2013-02-20 02:16:00,39.7,38.3,29.81,West,279,0.0,4.0,95,0.00,,,0.00,WUHU216DAVISVP2,2013-02-20 10:16:00,
2013-02-20 02:22:00,39.7,38.3,29.81,West,279,0.0,4.0,95,0.00,,,0.00,WUHU216DAVISVP2,2013-02-20 10:22:00,
2013-02-20 02:27:00,39.7,38.3,29.81,WNW,284,1.0,4.0,95,0.00,,,0.00,WUHU216DAVISVP2,2013-02-20 10:27:00,
2013-02-20 02:32:00,39.7,38.4,29.81,NW,310,1.0,4.0,95,0.00,,,0.00,WUHU216DAVISVP2,2013-02-20 10:32:00,
2013-02-20 02:37:00,39.7,38.4,29.81,NW,310,1.0,4.0,95,0.00,,,0.00,WUHU216DAVISVP2,2013-02-20 10:37:00,
2013-02-20 02:42:00,39.7,38.1,29.81,NW,310,1.0,4.0,94,0.00,,,0.00,WUHU216DAVISVP2,2013-02-20 10:42:00,
2013-02-20 02:47:00,39.7,38.1,29.81,NW,304,1.0,4.0,94,0.00,,,0.00,WUHU216DAVISVP2,2013-02-20 10:47:00,
2013-02-20 02:52:00,39.8,38.2,29.81,NW,309,3.0,5.0,94,0.00,,,0.00,WUHU216DAVISVP2,2013-02-20 10:52:00,
2013-02-20 02:57:00,39.8,38.2,29.81,WNW,289,6.0,6.0,94,0.00,,,0.00,WUHU216DAVISVP2,2013-02-20 10:57:00,
2013-02-20 03:02:00,39.8,38.2,29.81,WNW,302,2.0,7.0,94,0.00,,,0.00,WUHU216DAVISVP2,2013-02-20 11:02:00,
2013-02-20 03:07:00,39.8,38.2,29.82,NW,325,3.0,8.0,94,0.00,,,0.00,WUHU216DAVISVP2,2013-02-20 11:07:00,
2013-02-20 03:12:00,39.9,38.0,29.81,WNW,292,3.0,8.0,93,0.00,,,0.00,WUHU216DAVISVP2,2013-02-20 11:12:00,
2013-02-20 03:17:00,39.8,37.9,29.82,NW,308,3.0,11.0,93,0.00,,,0.00,WUHU216DAVISVP2,2013-02-20 11:17:00,
2013-02-20 03:22:00,39.7,37.5,29.82,NNW,329,4.0,11.0,92,0.00,,,0.00,WUHU216DAVISVP2,2013-02-20 11:22:00,
2013-02-20 03:27:00,39.7,37.5,29.82,NW,321,1.0,9.0,92,0.00,,,0.00,WUHU216DAVISVP2,2013-02-20 11:27:00,
2013-02-20 03:32:00,39.6,37.4,29.82,NW,306,1.0,9.0,92,0.00,,,0.00,WUHU216DAVISVP2,2013-02-20 11:32:00,
2013-02-20 03:37:00,39.6,37.4,29.82,WNW,300,4.0,9.0,92,0.00,,,0.00,WUHU216DAVISVP2,2013-02-20 11:37:00,
2013-02-20 03:42:00,39.5,37.3,29.82,WNW,285,5.0,11.0,92,0.00,,,0.00,WUHU216DAVISVP2,2013-02-20 11:42:00,
2013-02-20 03:47:00,39.5,37.3,29.82,NW,316,5.0,11.0,92,0.00,,,0.00,WUHU216DAVISVP2,2013-02-20 11:47:00,
2013-02-20 03:52:00,39.6,37.4,29.82,NW,306,4.0,12.0,92,0.00,,,0.00,WUHU216DAVISVP2,2013-02-20 11:52:00,
2013-02-20 03:57:00,39.6,37.4,29.82,NNW,333,5.0,12.0,92,0.00,,,0.00,WUHU216DAVISVP2,2013-02-20 11:57:00,
2013-02-20 04:02:00,39.7,37.5,29.83,NW,313,4.0,8.0,92,0.00,,,0.00,WUHU216DAVISVP2,2013-02-20 12:02:00,
2013-02-20 04:07:00,39.8,37.6,29.83,NNW,334,4.0,8.0,92,0.00,,,0.00,WUHU216DAVISVP2,2013-02-20 12:07:00,
2013-02-20 04:12:00,39.8,37.9,29.83,NNW,327,7.0,8.0,93,0.00,,,0.00,WUHU216DAVISVP2,2013-02-20 12:12:00,
2013-02-20 04:17:00,40.0,38.1,29.84,NNW,327,5.0,8.0,93,0.00,,,0.00,WUHU216DAVISVP2,2013-02-20 12:17:00,
2013-02-20 04:22:00,40.1,37.9,29.84,NW,321,8.0,8.0,92,0.00,,,0.00,WUHU216DAVISVP2,2013-02-20 12:22:00,
2013-02-20 04:27:00,40.1,37.9,29.84,NW,310,5.0,9.0,92,0.00,,,0.00,WUHU216DAVISVP2,2013-02-20 12:27:00,
2013-02-20 04:32:00,40.2,38.1,29.84,WNW,302,2.0,9.0,92,0.00,,,0.00,WUHU216DAVISVP2,2013-02-20 12:32:00,
2013-02-20 04:37:00,40.2,38.0,29.84,WNW,293,2.0,7.0,92,0.00,,,0.00,WUHU216DAVISVP2,2013-02-20 12:37:00,
2013-02-20 04:42:00,40.3,38.1,29.84,NW,309,6.0,6.0,92,0.00,,,0.00,WUHU216DAVISVP2,2013-02-20 12:42:00,
2013-02-20 04:47:00,40.2,38.0,29.85,WNW,290,2.0,7.0,92,0.00,,,0.00,WUHU216DAVISVP2,2013-02-20 12:47:00,
2013-02-20 04:53:00,40.2,38.3,29.85,West,279,3.0,6.0,93,0.00,,,0.00,WUHU216DAVISVP2,2013-02-20 12:53:00,
2013-02-20 04:58:00,40.2,38.0,29.85,NW,322,3.0,6.0,92,0.00,,,0.00,WUHU216DAVISVP2,2013-02-20 12:58:00,
2013-02-20 05:03:00,40.1,37.9,29.85,NW,311,3.0,6.0,92,0.00,,,0.00,WUHU216DAVISVP2,2013-02-20 13:03:00,
2013-02-20 05:08:00,40.1,38.2,29.85,NW,319,2.0,6.0,93,0.00,,,0.00,WUHU216DAVISVP2,2013-02-20 13:08:00,
2013-02-20 05:15:00,40.1,37.9,29.86,NNW,336,3.0,7.0,92,0.00,,,0.00,WUHU216DAVISVP2,2013-02-20 13:15:00,
2013-02-20 05:20:00,39.9,37.7,29.86,NNW,333,5.0,9.0,92,0.00,,,0.00,WUHU216DAVISVP2,2013-02-20 13:20:00,
2013-02-20 05:25:00,39.8,37.6,29.86,NNW,329,4.0,9.0,92,0.00,,,0.00,WUHU216DAVISVP2,2013-02-20 13:25:00,
2013-02-20 05:30:00,39.6,37.4,29.86,NW,325,6.0,8.0,92,0.00,,,0.00,WUHU216DAVISVP2,2013-02-20 13:30:00,
2013-02-20 05:35:00,39.5,37.3,29.86,NW,325,1.0,8.0,92,0.00,,,0.00,WUHU216DAVISVP2,2013-02-20 13:35:00,
2013-02-20 05:40:00,39.2,37.1,29.86,NNW,342,2.0,7.0,92,0.00,,,0.00,WUHU216DAVISVP2,2013-02-20 13:40:00,
2013-02-20 05:45:00,39.1,37.0,29.86,NNW,328,3.0,6.0,92,0.00,,,0.00,WUHU216DAVISVP2,2013-02-20 13:45:00,
2013-02-20 05:50:00,39.0,36.8,29.87,NW,317,0.0,5.0,92,0.00,,,0.00,WUHU216DAVISVP2,2013-02-20 13:50:00,
2013-02-20 05:55:00,39.0,36.8,29.87,NW,321,3.0,5.0,92,0.00,,,0.00,WUHU216DAVISVP2,2013-02-20 13:55:00,
2013-02-20 06:00:00,39.1,36.9,29.87,NNW,338,3.0,5.0,92,0.00,,,0.00,WUHU216DAVISVP2,2013-02-20 14:00:00,
2013-02-20 06:05:00,39.2,37.3,29.87,NW,320,2.0,4.0,93,0.00,,,0.00,WUHU216DAVISVP2,2013-02-20 14:05:00,
2013-02-20 06:10:00,39.2,37.3,29.88,NW,313,3.0,5.0,93,0.00,,,0.00,WUHU216DAVISVP2,2013-02-20 14:10:00,
2013-02-20 06:15:00,39.3,37.4,29.88,NNW,330,0.0,8.0,93,0.00,,,0.00,WUHU216DAVISVP2,2013-02-20 14:15:00,
2013-02-20 06:20:00,39.3,37.4,29.88,NNW,329,3.0,8.0,93,0.00,,,0.00,WUHU216DAVISVP2,2013-02-20 14:20:00,
2013-02-20 06:25:00,39.3,37.1,29.88,NW,319,2.0,7.0,92,0.00,,,0.00,WUHU216DAVISVP2,2013-02-20 14:25:00,
2013-02-20 06:30:00,39.4,37.2,29.88,NNW,343,3.0,7.0,92,0.00,,,0.00,WUHU216DAVISVP2,2013-02-20 14:30:00,
2013-02-20 06:35:00,39.4,37.2,29.89,NNW,347,2.0,6.0,92,0.00,,,0.00,WUHU216DAVISVP2,2013-02-20 14:35:00,
2013-02-20 06:40:00,39.4,37.2,29.89,NNW,331,3.0,6.0,92,0.00,,,0.00,WUHU216DAVISVP2,2013-02-20 14:40:00,
2013-02-20 06:45:00,39.4,37.2,29.89,NW,324,3.0,5.0,92,0.00,,,0.00,WUHU216DAVISVP2,2013-02-20 14:45:00,
2013-02-20 06:50:00,39.5,37.3,29.89,NW,315,2.0,5.0,92,0.00,,,0.00,WUHU216DAVISVP2,2013-02-20 14:50:00,
2013-02-20 06:55:00,39.5,37.3,29.90,NW,310,4.0,6.0,92,0.00,,,0.00,WUHU216DAVISVP2,2013-02-20 14:55:00,
2013-02-20 07:00:00,39.6,37.1,29.90,NW,311,3.0,6.0,91,0.00,,,0.00,WUHU216DAVISVP2,2013-02-20 15:00:00,
2013-02-20 07:05:00,39.6,37.1,29.90,NW,304,3.0,5.0,91,0.00,,,0.00,WUHU216DAVISVP2,2013-02-20 15:05:00,
2013-02-20 07:10:00,39.6,37.1,29.91,WNW,294,0.0,5.0,91,0.00,,,0.00,WUHU216DAVISVP2,2013-02-20 15:10:00,
2013-02-20 07:15:00,39.7,37.2,29.92,NW,314,2.0,5.0,91,0.00,,,0.00,WUHU216DAVISVP2,2013-02-20 15:15:00,
2013-02-20 07:20:00,39.7,37.2,29.92,WNW,303,0.0,6.0,91,0.00,,,0.00,WUHU216DAVISVP2,2013-02-20 15:20:00,
2013-02-20 07:25:00,39.8,37.3,29.92,NW,319,3.0,6.0,91,0.00,,,0.00,WUHU216DAVISVP2,2013-02-20 15:25:00,
2013-02-20 07:30:00,39.8,37.1,29.92,NW,316,0.0,6.0,90,0.00,,,0.00,WUHU216DAVISVP2,2013-02-20 15:30:00,
2013-02-20 07:35:00,39.9,37.2,29.92,NW,307,3.0,6.0,90,0.00,,,0.00,WUHU216DAVISVP2,2013-02-20 15:35:00,
2013-02-20 07:40:00,39.9,37.2,29.92,NNW,331,4.0,6.0,90,0.00,,,0.00,WUHU216DAVISVP2,2013-02-20 15:40:00,
2013-02-20 07:45:00,39.9,37.2,29.92,NW,311,1.0,6.0,90,0.00,,,0.00,WUHU216DAVISVP2,2013-02-20 15:45:00,
2013-02-20 07:50:00,40.1,37.4,29.93,NNW,337,2.0,6.0,90,0.00,,,0.00,WUHU216DAVISVP2,2013-02-20 15:50:00,
2013-02-20 07:55:00,40.2,37.5,29.93,North,355,0.0,6.0,90,0.00,,,0.00,WUHU216DAVISVP2,2013-02-20 15:55:00,
2013-02-20 08:00:00,40.4,37.7,29.93,NW,319,3.0,5.0,90,0.00,,,0.00,WUHU216DAVISVP2,2013-02-20 16:00:00,
2013-02-20 08:05:00,40.5,37.8,29.93,NNW,342,3.0,5.0,90,0.00,,,0.00,WUHU216DAVISVP2,2013-02-20 16:05:00,
2013-02-20 08:10:00,40.6,37.6,29.94,NW,326,4.0,8.0,89,0.00,,,0.00,WUHU216DAVISVP2,2013-02-20 16:10:00,
2013-02-20 08:15:00,40.7,37.7,29.94,NNW,346,4.0,8.0,89,0.00,,,0.00,WUHU216DAVISVP2,2013-02-20 16:15:00,
2013-02-20 08:20:00,40.9,37.9,29.94,North,350,4.0,7.0,89,0.00,,,0.00,WUHU216DAVISVP2,2013-02-20 16:20:00,
2013-02-20 08:25:00,41.0,38.0,29.95,North,360,0.0,6.0,89,0.00,,,0.00,WUHU216DAVISVP2,2013-02-20 16:25:00,
2013-02-20 08:30:00,41.2,38.2,29.95,NNE,14,1.0,7.0,89,0.00,,,0.00,WUHU216DAVISVP2,2013-02-20 16:30:00,
2013-02-20 08:35:00,41.3,38.0,29.95,North,5,0.0,7.0,88,0.00,,,0.00,WUHU216DAVISVP2,2013-02-20 16:35:00,
2013-02-20 08:40:00,41.5,38.2,29.95,North,5,3.0,7.0,88,0.00,,,0.00,WUHU216DAVISVP2,2013-02-20 16:40:00,
2013-02-20 08:45:00,41.8,38.5,29.95,North,355,5.0,5.0,88,0.00,,,0.00,WUHU216DAVISVP2,2013-02-20 16:45:00,
2013-02-20 08:50:00,41.5,37.9,29.95,North,360,0.0,6.0,87,0.00,,,0.00,WUHU216DAVISVP2,2013-02-20 16:50:00,
2013-02-20 08:55:00,42.2,38.9,29.95,North,360,4.0,6.0,88,0.00,,,0.00,WUHU216DAVISVP2,2013-02-20 16:55:00,
2013-02-20 09:00:00,42.9,39.0,29.95,ENE,63,5.0,6.0,86,0.00,,,0.00,WUHU216DAVISVP2,2013-02-20 17:00:00,
2013-02-20 09:05:00,43.3,39.1,29.96,NNW,348,2.0,6.0,85,0.00,,,0.00,WUHU216DAVISVP2,2013-02-20 17:05:00,
2013-02-20 09:10:00,43.8,39.3,29.96,NNE,19,3.0,5.0,84,0.00,,,0.00,WUHU216DAVISVP2,2013-02-20 17:10:00,
2013-02-20 09:15:00,44.1,39.3,29.96,North,5,1.0,6.0,83,0.00,,,0.00,WUHU216DAVISVP2,2013-02-20 17:15:00,
2013-02-20 09:20:00,44.1,39.3,29.96,NNE,21,3.0,6.0,83,0.00,,,0.00,WUHU216DAVISVP2,2013-02-20 17:20:00,
2013-02-20 09:25:00,44.4,39.6,29.96,North,5,0.0,6.0,83,0.00,,,0.00,WUHU216DAVISVP2,2013-02-20 17:25:00,
2013-02-20 09:30:00,44.7,39.9,29.97,NE,56,4.0,6.0,83,0.00,,,0.00,WUHU216DAVISVP2,2013-02-20 17:30:00,
2013-02-20 09:35:00,44.6,39.5,29.97,North,9,0.0,7.0,82,0.00,,,0.00,WUHU216DAVISVP2,2013-02-20 17:35:00,
2013-02-20 09:40:00,44.3,39.2,29.97,North,9,1.0,7.0,82,0.00,,,0.00,WUHU216DAVISVP2,2013-02-20 17:40:00,
2013-02-20 09:45:00,44.6,39.1,29.97,NNE,18,4.0,5.0,81,0.00,,,0.00,WUHU216DAVISVP2,2013-02-20 17:45:00,
2013-02-20 09:50:00,44.9,39.4,29.97,NNE,21,0.0,5.0,81,0.00,,,0.00,WUHU216DAVISVP2,2013-02-20 17:50:00,
2013-02-20 09:56:00,44.6,38.8,29.97,NE,36,0.0,5.0,80,0.00,,,0.00,WUHU216DAVISVP2,2013-02-20 17:56:00,
2013-02-20 10:01:00,44.8,39.0,29.98,NE,36,1.0,5.0,80,0.00,,,0.00,WUHU216DAVISVP2,2013-02-20 18:01:00,
2013-02-20 10:06:00,44.6,39.1,29.98,NE,55,2.0,4.0,81,0.00,,,0.00,WUHU216DAVISVP2,2013-02-20 18:06:00,
2013-02-20 10:11:00,44.8,39.0,29.98,NE,45,2.0,4.0,80,0.00,,,0.00,WUHU216DAVISVP2,2013-02-20 18:11:00,
2013-02-20 10:16:00,44.7,38.9,29.98,ENE,60,2.0,4.0,80,0.00,,,0.00,WUHU216DAVISVP2,2013-02-20 18:16:00,
2013-02-20 10:21:00,44.7,38.9,29.98,ENE,60,0.0,4.0,80,0.00,,,0.00,WUHU216DAVISVP2,2013-02-20 18:21:00,
2013-02-20 10:27:00,45.1,39.6,29.99,East,80,0.0,3.0,81,0.00,,,0.00,WUHU216DAVISVP2,2013-02-20 18:27:00,
2013-02-20 10:32:00,45.1,39.3,29.99,NE,45,4.0,4.0,80,0.00,,,0.00,WUHU216DAVISVP2,2013-02-20 18:32:00,
2013-02-20 10:37:00,45.3,39.5,29.99,NE,50,1.0,4.0,80,0.00,,,0.00,WUHU216DAVISVP2,2013-02-20 18:37:00,
2013-02-20 10:42:00,45.4,39.3,29.99,NE,50,0.0,4.0,79,0.00,,,0.00,WUHU216DAVISVP2,2013-02-20 18:42:00,
2013-02-20 10:47:00,44.9,38.2,29.99,NE,50,0.0,2.0,77,0.00,,,0.00,WUHU216DAVISVP2,2013-02-20 18:47:00,
2013-02-20 10:52:00,44.9,38.5,29.99,NE,50,0.0,2.0,78,0.00,,,0.00,WUHU216DAVISVP2,2013-02-20 18:52:00,
2013-02-20 10:57:00,45.3,38.9,29.99,NE,50,0.0,3.0,78,0.00,,,0.00,WUHU216DAVISVP2,2013-02-20 18:57:00,
2013-02-20 11:02:00,45.6,39.5,29.99,NE,50,1.0,3.0,79,0.00,,,0.00,WUHU216DAVISVP2,2013-02-20 19:02:00,
2013-02-20 11:07:00,45.7,39.6,29.99,NE,50,0.0,3.0,79,0.00,,,0.00,WUHU216DAVISVP2,2013-02-20 19:07:00,
2013-02-20 11:12:00,45.7,39.3,29.99,NE,50,0.0,3.0,78,0.00,,,0.00,WUHU216DAVISVP2,2013-02-20 19:12:00,
2013-02-20 11:17:00,46.0,39.6,29.99,NE,50,2.0,2.0,78,0.00,,,0.00,WUHU216DAVISVP2,2013-02-20 19:17:00,
2013-02-20 11:22:00,46.4,40.0,30.00,NE,51,0.0,4.0,78,0.00,,,0.00,WUHU216DAVISVP2,2013-02-20 19:22:00,
2013-02-20 11:27:00,46.4,39.6,29.99,NE,44,0.0,7.0,77,0.00,,,0.00,WUHU216DAVISVP2,2013-02-20 19:27:00,
2013-02-20 11:32:00,46.6,40.2,30.00,NW,311,2.0,7.0,78,0.00,,,0.00,WUHU216DAVISVP2,2013-02-20 19:32:00,
2013-02-20 11:37:00,46.6,39.2,30.00,NNW,338,2.0,4.0,75,0.00,,,0.00,WUHU216DAVISVP2,2013-02-20 19:37:00,
2013-02-20 11:42:00,46.7,38.9,30.00,NW,324,0.0,5.0,74,0.00,,,0.00,WUHU216DAVISVP2,2013-02-20 19:42:00,
2013-02-20 11:47:00,47.0,39.2,29.99,North,350,5.0,5.0,74,0.00,,,0.00,WUHU216DAVISVP2,2013-02-20 19:47:00,
2013-02-20 11:52:00,47.1,39.0,29.99,North,350,0.0,5.0,73,0.00,,,0.00,WUHU216DAVISVP2,2013-02-20 19:52:00,
2013-02-20 11:57:00,47.2,39.1,29.99,NW,325,3.0,5.0,73,0.00,,,0.00,WUHU216DAVISVP2,2013-02-20 19:57:00,
2013-02-20 12:02:00,47.2,39.1,29.99,NW,320,1.0,6.0,73,0.00,,,0.00,WUHU216DAVISVP2,2013-02-20 20:02:00,
2013-02-20 12:07:00,47.4,39.3,29.99,NW,309,4.0,7.0,73,0.00,,,0.00,WUHU216DAVISVP2,2013-02-20 20:07:00,
2013-02-20 12:12:00,47.6,38.8,29.99,North,351,0.0,7.0,71,0.00,,,0.00,WUHU216DAVISVP2,2013-02-20 20:12:00,
2013-02-20 12:17:00,47.8,39.6,29.99,North,5,0.0,6.0,73,0.00,,,0.00,WUHU216DAVISVP2,2013-02-20 20:17:00,
2013-02-20 12:23:00,47.9,39.0,29.99,NNW,346,6.0,6.0,71,0.00,,,0.00,WUHU216DAVISVP2,2013-02-20 20:23:00,
2013-02-20 12:28:00,48.2,39.3,29.99,NNW,344,2.0,6.0,71,0.00,,,0.00,WUHU216DAVISVP2,2013-02-20 20:28:00,
2013-02-20 12:33:00,49.5,40.2,29.99,North,9,0.0,6.0,70,0.00,,,0.00,WUHU216DAVISVP2,2013-02-20 20:33:00,
2013-02-20 12:38:00,48.4,38.8,29.99,NW,325,4.0,6.0,69,0.00,,,0.00,WUHU216DAVISVP2,2013-02-20 20:38:00,
2013-02-20 12:43:00,47.8,38.2,29.99,NW,312,0.0,6.0,69,0.00,,,0.00,WUHU216DAVISVP2,2013-02-20 20:43:00,
2013-02-20 12:48:00,48.0,39.5,29.99,NW,312,0.0,4.0,72,0.00,,,0.00,WUHU216DAVISVP2,2013-02-20 20:48:00,
2013-02-20 12:53:00,49.2,39.9,29.99,ESE,111,1.0,1.0,70,0.00,,,0.00,WUHU216DAVISVP2,2013-02-20 20:53:00,
2013-02-20 12:58:00,49.4,39.4,29.99,NE,35,0.0,4.0,68,0.00,,,0.00,WUHU216DAVISVP2,2013-02-20 20:58:00,
2013-02-20 13:03:00,49.2,39.2,29.98,NNW,340,0.0,4.0,68,0.00,,,0.00,WUHU216DAVISVP2,2013-02-20 21:03:00,
2013-02-20 13:08:00,48.8,38.8,29.99,NNW,336,0.0,4.0,68,0.00,,,0.00,WUHU216DAVISVP2,2013-02-20 21:08:00,
2013-02-20 13:13:00,49.2,40.3,29.99,NNE,30,1.0,4.0,71,0.00,,,0.00,WUHU216DAVISVP2,2013-02-20 21:13:00,
2013-02-20 13:18:00,49.4,39.8,29.98,East,84,0.0,2.0,69,0.00,,,0.00,WUHU216DAVISVP2,2013-02-20 21:18:00,
2013-02-20 13:23:00,50.3,39.5,29.99,East,87,0.0,3.0,66,0.00,,,0.00,WUHU216DAVISVP2,2013-02-20 21:23:00,
2013-02-20 13:28:00,49.9,39.5,29.98,ESE,109,5.0,6.0,67,0.00,,,0.00,WUHU216DAVISVP2,2013-02-20 21:28:00,
2013-02-20 13:33:00,49.6,39.2,29.98,NE,49,0.0,6.0,67,0.00,,,0.00,WUHU216DAVISVP2,2013-02-20 21:33:00,
2013-02-20 13:38:00,49.8,39.8,29.98,NE,49,0.0,6.0,68,0.00,,,0.00,WUHU216DAVISVP2,2013-02-20 21:38:00,
2013-02-20 13:43:00,49.3,39.7,29.99,NE,49,0.0,1.0,69,0.00,,,0.00,WUHU216DAVISVP2,2013-02-20 21:43:00,
2013-02-20 13:48:00,50.0,41.1,29.98,SE,129,5.0,7.0,71,0.00,,,0.00,WUHU216DAVISVP2,2013-02-20 21:48:00,
2013-02-20 13:53:00,51.0,42.0,29.98,SSE,150,6.0,7.0,71,0.00,,,0.00,WUHU216DAVISVP2,2013-02-20 21:53:00,
2013-02-20 13:58:00,51.4,42.8,29.98,SE,132,5.0,9.0,72,0.00,,,0.00,WUHU216DAVISVP2,2013-02-20 21:58:00,
2013-02-20 14:03:00,51.1,42.1,29.98,SE,129,5.0,9.0,71,0.00,,,0.00,WUHU216DAVISVP2,2013-02-20 22:03:00,
2013-02-20 14:08:00,50.7,41.7,29.98,ESE,102,2.0,8.0,71,0.00,,,0.00,WUHU216DAVISVP2,2013-02-20 22:08:00,
2013-02-20 14:13:00,50.6,42.0,29.98,ENE,69,0.0,8.0,72,0.00,,,0.00,WUHU216DAVISVP2,2013-02-20 22:13:00,
2013-02-20 14:18:00,50.8,42.2,29.98,SE,134,4.0,8.0,72,0.00,,,0.00,WUHU216DAVISVP2,2013-02-20 22:18:00,
2013-02-20 14:23:00,51.4,42.8,29.98,SE,142,2.0,9.0,72,0.00,,,0.00,WUHU216DAVISVP2,2013-02-20 22:23:00,
2013-02-20 14:28:00,51.2,41.9,29.98,SE,142,0.0,9.0,70,0.00,,,0.00,WUHU216DAVISVP2,2013-02-20 22:28:00,
2013-02-20 14:33:00,51.5,42.9,29.98,SE,140,4.0,9.0,72,0.00,,,0.00,WUHU216DAVISVP2,2013-02-20 22:33:00,
2013-02-20 14:38:00,51.4,42.0,29.99,ESE,112,1.0,8.0,70,0.00,,,0.00,WUHU216DAVISVP2,2013-02-20 22:38:00,
2013-02-20 14:43:00,51.6,42.6,29.98,ESE,114,1.0,8.0,71,0.00,,,0.00,WUHU216DAVISVP2,2013-02-20 22:43:00,
2013-02-20 14:48:00,51.7,42.3,29.98,East,85,1.0,8.0,70,0.00,,,0.00,WUHU216DAVISVP2,2013-02-20 22:48:00,
2013-02-20 14:53:00,52.1,42.7,29.98,ESE,115,6.0,8.0,70,0.00,,,0.00,WUHU216DAVISVP2,2013-02-20 22:53:00,
2013-02-20 14:58:00,51.0,42.4,29.98,ESE,120,1.0,9.0,72,0.00,,,0.00,WUHU216DAVISVP2,2013-02-20 22:58:00,
2013-02-20 15:03:00,50.5,41.9,29.98,SSE,153,4.0,9.0,72,0.00,,,0.00,WUHU216DAVISVP2,2013-02-20 23:03:00,
2013-02-20 15:08:00,50.3,42.1,29.98,ESE,119,0.0,9.0,73,0.00,,,0.00,WUHU216DAVISVP2,2013-02-20 23:08:00,
2013-02-20 15:13:00,50.1,41.9,29.98,SE,128,0.0,8.0,73,0.00,,,0.00,WUHU216DAVISVP2,2013-02-20 23:13:00,
2013-02-20 15:18:00,50.1,41.9,29.99,SE,142,1.0,9.0,73,0.00,,,0.00,WUHU216DAVISVP2,2013-02-20 23:18:00,
2013-02-20 15:23:00,50.5,42.3,29.99,SE,146,6.0,9.0,73,0.00,,,0.00,WUHU216DAVISVP2,2013-02-20 23:23:00,
2013-02-20 15:28:00,51.0,42.4,29.98,SSE,151,1.0,8.0,72,0.00,,,0.00,WUHU216DAVISVP2,2013-02-20 23:28:00,
2013-02-20 15:33:00,50.8,41.8,29.98,ESE,108,1.0,10.0,71,0.00,,,0.00,WUHU216DAVISVP2,2013-02-20 23:33:00,
2013-02-20 15:38:00,50.6,42.0,29.99,SE,137,1.0,10.0,72,0.00,,,0.00,WUHU216DAVISVP2,2013-02-20 23:38:00,
2013-02-20 15:43:00,51.0,42.0,29.99,SE,146,8.0,9.0,71,0.00,,,0.00,WUHU216DAVISVP2,2013-02-20 23:43:00,
2013-02-20 15:48:00,50.3,41.7,29.99,SSE,155,7.0,9.0,72,0.00,,,0.00,WUHU216DAVISVP2,2013-02-20 23:48:00,
2013-02-20 15:53:00,50.2,42.0,29.99,SE,138,2.0,8.0,73,0.00,,,0.00,WUHU216DAVISVP2,2013-02-20 23:53:00,
2013-02-20 15:58:00,50.3,41.7,29.99,East,100,2.0,7.0,72,0.00,,,0.00,WUHU216DAVISVP2,2013-02-20 23:58:00,
2013-02-20 16:03:00,50.3,41.4,29.99,East,98,1.0,7.0,71,0.00,,,0.00,WUHU216DAVISVP2,2013-02-21 00:03:00,
2013-02-20 16:08:00,50.3,41.7,29.99,SE,138,0.0,7.0,72,0.00,,,0.00,WUHU216DAVISVP2,2013-02-21 00:08:00,
2013-02-20 16:13:00,50.3,41.4,29.99,ESE,105,5.0,6.0,71,0.00,,,0.00,WUHU216DAVISVP2,2013-02-21 00:13:00,
2013-02-20 16:18:00,50.1,41.2,29.99,SE,138,4.0,6.0,71,0.00,,,0.00,WUHU216DAVISVP2,2013-02-21 00:18:00,
2013-02-20 16:23:00,50.0,41.1,29.99,ESE,106,2.0,6.0,71,0.00,,,0.00,WUHU216DAVISVP2,2013-02-21 00:23:00,
2013-02-20 16:28:00,50.0,41.1,29.99,ESE,111,1.0,9.0,71,0.00,,,0.00,WUHU216DAVISVP2,2013-02-21 00:28:00,
2013-02-20 16:33:00,49.9,41.0,29.99,ESE,103,4.0,9.0,71,0.00,,,0.00,WUHU216DAVISVP2,2013-02-21 00:33:00,
2013-02-20 16:38:00,50.1,41.5,30.00,ESE,120,0.0,8.0,72,0.00,,,0.00,WUHU216DAVISVP2,2013-02-21 00:38:00,
2013-02-20 16:43:00,49.9,41.0,30.00,ESE,115,0.0,6.0,71,0.00,,,0.00,WUHU216DAVISVP2,2013-02-21 00:43:00,
2013-02-20 16:48:00,49.8,40.9,29.99,ESE,107,0.0,6.0,71,0.00,,,0.00,WUHU216DAVISVP2,2013-02-21 00:48:00,
2013-02-20 16:53:00,49.6,41.0,29.99,East,88,3.0,6.0,72,0.00,,,0.00,WUHU216DAVISVP2,2013-02-21 00:53:00,
2013-02-20 16:58:00,49.4,40.5,29.99,SE,138,4.0,7.0,71,0.00,,,0.00,WUHU216DAVISVP2,2013-02-21 00:58:00,
2013-02-20 17:03:00,49.2,40.6,30.00,ESE,121,0.0,7.0,72,0.00,,,0.00,WUHU216DAVISVP2,2013-02-21 01:03:00,
2013-02-20 17:08:00,49.1,40.6,30.00,East,92,0.0,5.0,72,0.00,,,0.00,WUHU216DAVISVP2,2013-02-21 01:08:00,
2013-02-20 17:13:00,48.9,40.4,30.00,East,97,1.0,5.0,72,0.00,,,0.00,WUHU216DAVISVP2,2013-02-21 01:13:00,
2013-02-20 17:18:00,48.7,40.2,30.00,East,97,0.0,4.0,72,0.00,,,0.00,WUHU216DAVISVP2,2013-02-21 01:18:00,
2013-02-20 17:23:00,48.5,40.3,30.00,East,97,0.0,4.0,73,0.00,,,0.00,WUHU216DAVISVP2,2013-02-21 01:23:00,
2013-02-20 17:28:00,48.2,40.0,30.01,East,97,0.0,4.0,73,0.00,,,0.00,WUHU216DAVISVP2,2013-02-21 01:28:00,
2013-02-20 17:33:00,47.9,40.1,30.01,East,97,1.0,4.0,74,0.00,,,0.00,WUHU216DAVISVP2,2013-02-21 01:33:00,
2013-02-20 17:38:00,47.7,39.9,30.01,East,97,0.0,4.0,74,0.00,,,0.00,WUHU216DAVISVP2,2013-02-21 01:38:00,
2013-02-20 17:43:00,47.4,39.9,30.01,East,97,0.0,4.0,75,0.00,,,0.00,WUHU216DAVISVP2,2013-02-21 01:43:00,
2013-02-20 17:48:00,47.2,39.7,30.01,East,97,2.0,2.0,75,0.00,,,0.00,WUHU216DAVISVP2,2013-02-21 01:48:00,
2013-02-20 17:53:00,46.9,39.8,30.01,East,97,0.0,2.0,76,0.00,,,0.00,WUHU216DAVISVP2,2013-02-21 01:53:00,
2013-02-20 17:58:00,46.7,39.9,30.01,East,97,2.0,4.0,77,0.00,,,0.00,WUHU216DAVISVP2,2013-02-21 01:58:00,
2013-02-20 18:03:00,46.4,39.6,30.01,East,97,0.0,4.0,77,0.00,,,0.00,WUHU216DAVISVP2,2013-02-21 02:03:00,
2013-02-20 18:08:00,46.2,39.4,30.02,East,97,0.0,4.0,77,0.00,,,0.00,WUHU216DAVISVP2,2013-02-21 02:08:00,
2013-02-20 18:13:00,46.0,39.6,30.02,East,97,2.0,4.0,78,0.00,,,0.00,WUHU216DAVISVP2,2013-02-21 02:13:00,
2013-02-20 18:18:00,45.8,39.4,30.02,East,97,0.0,2.0,78,0.00,,,0.00,WUHU216DAVISVP2,2013-02-21 02:18:00,
2013-02-20 18:23:00,45.6,39.5,30.02,East,97,0.0,2.0,79,0.00,,,0.00,WUHU216DAVISVP2,2013-02-21 02:23:00,
2013-02-20 18:28:00,45.4,39.6,30.02,East,97,0.0,2.0,80,0.00,,,0.00,WUHU216DAVISVP2,2013-02-21 02:28:00,
2013-02-20 18:33:00,45.1,39.3,30.02,East,97,0.0,2.0,80,0.00,,,0.00,WUHU216DAVISVP2,2013-02-21 02:33:00,
2013-02-20 18:38:00,44.9,39.1,30.02,East,97,0.0,1.0,80,0.00,,,0.00,WUHU216DAVISVP2,2013-02-21 02:38:00,
2013-02-20 18:43:00,44.6,39.1,30.03,East,97,0.0,2.0,81,0.00,,,0.00,WUHU216DAVISVP2,2013-02-21 02:43:00,
2013-02-20 18:48:00,44.2,38.8,30.03,East,97,0.0,2.0,81,0.00,,,0.00,WUHU216DAVISVP2,2013-02-21 02:48:00,
2013-02-20 18:53:00,44.1,39.0,30.03,East,97,0.0,2.0,82,0.00,,,0.00,WUHU216DAVISVP2,2013-02-21 02:53:00,
2013-02-20 18:58:00,44.1,39.0,30.03,East,97,0.0,2.0,82,0.00,,,0.00,WUHU216DAVISVP2,2013-02-21 02:58:00,
2013-02-20 19:03:00,44.1,39.0,30.04,East,97,0.0,2.0,82,0.00,,,0.00,WUHU216DAVISVP2,2013-02-21 03:03:00,
2013-02-20 19:08:00,43.9,39.1,30.04,East,97,0.0,2.0,83,0.00,,,0.00,WUHU216DAVISVP2,2013-02-21 03:08:00,
2013-02-20 19:13:00,43.4,38.3,30.04,East,97,0.0,0.0,82,0.00,,,0.00,WUHU216DAVISVP2,2013-02-21 03:13:00,
2013-02-20 19:18:00,42.9,38.1,30.04,East,97,0.0,0.0,83,0.00,,,0.00,WUHU216DAVISVP2,2013-02-21 03:18:00,
2013-02-20 19:23:00,42.7,38.2,30.04,East,97,0.0,0.0,84,0.00,,,0.00,WUHU216DAVISVP2,2013-02-21 03:23:00,
2013-02-20 19:28:00,42.5,38.3,30.04,East,97,1.0,1.0,85,0.00,,,0.00,WUHU216DAVISVP2,2013-02-21 03:28:00,
2013-02-20 19:33:00,42.0,37.8,30.05,East,97,0.0,2.0,85,0.00,,,0.00,WUHU216DAVISVP2,2013-02-21 03:33:00,
2013-02-20 19:38:00,41.4,37.5,30.05,East,97,1.0,2.0,86,0.00,,,0.00,WUHU216DAVISVP2,2013-02-21 03:38:00,
2013-02-20 19:43:00,41.2,37.6,30.04,East,97,0.0,1.0,87,0.00,,,0.00,WUHU216DAVISVP2,2013-02-21 03:43:00,
2013-02-20 19:48:00,41.1,37.2,30.04,East,97,0.0,1.0,86,0.00,,,0.00,WUHU216DAVISVP2,2013-02-21 03:48:00,
2013-02-20 19:53:00,41.0,37.4,30.05,East,97,0.0,2.0,87,0.00,,,0.00,WUHU216DAVISVP2,2013-02-21 03:53:00,
2013-02-20 19:58:00,41.1,37.5,30.05,East,97,0.0,2.0,87,0.00,,,0.00,WUHU216DAVISVP2,2013-02-21 03:58:00,
2013-02-20 20:03:00,40.9,37.3,30.05,East,97,0.0,1.0,87,0.00,,,0.00,WUHU216DAVISVP2,2013-02-21 04:03:00,
2013-02-20 20:08:00,40.8,37.2,30.05,East,97,0.0,2.0,87,0.00,,,0.00,WUHU216DAVISVP2,2013-02-21 04:08:00,
2013-02-20 20:13:00,40.7,37.1,30.05,East,97,1.0,2.0,87,0.00,,,0.00,WUHU216DAVISVP2,2013-02-21 04:13:00,
2013-02-20 20:18:00,41.0,37.4,30.05,East,97,0.0,4.0,87,0.00,,,0.00,WUHU216DAVISVP2,2013-02-21 04:18:00,
2013-02-20 20:23:00,41.3,37.7,30.05,East,97,0.0,4.0,87,0.00,,,0.00,WUHU216DAVISVP2,2013-02-21 04:23:00,
2013-02-20 20:28:00,41.0,37.1,30.05,East,97,0.0,2.0,86,0.00,,,0.00,WUHU216DAVISVP2,2013-02-21 04:28:00,
2013-02-20 20:33:00,40.9,37.0,30.05,East,97,0.0,2.0,86,0.00,,,0.00,WUHU216DAVISVP2,2013-02-21 04:33:00,
2013-02-20 20:38:00,40.7,37.1,30.05,East,97,0.0,2.0,87,0.00,,,0.00,WUHU216DAVISVP2,2013-02-21 04:38:00,
2013-02-20 20:44:00,40.6,37.0,30.05,East,97,1.0,2.0,87,0.00,,,0.00,WUHU216DAVISVP2,2013-02-21 04:44:00,
2013-02-20 20:49:00,40.2,36.9,30.05,East,97,1.0,2.0,88,0.00,,,0.00,WUHU216DAVISVP2,2013-02-21 04:49:00,
2013-02-20 20:54:00,40.4,37.1,30.05,East,97,0.0,2.0,88,0.00,,,0.00,WUHU216DAVISVP2,2013-02-21 04:54:00,
2013-02-20 20:59:00,40.1,36.8,30.05,East,97,0.0,2.0,88,0.00,,,0.00,WUHU216DAVISVP2,2013-02-21 04:59:00,
2013-02-20 21:00:00,40.1,36.8,30.05,East,97,0.0,2.0,88,0.00,,,0.00,WUHU216DAVISVP2,2013-02-21 05:00:00,
2013-02-20 21:05:00,39.5,36.2,30.05,East,97,0.0,2.0,88,0.00,,,0.00,WUHU216DAVISVP2,2013-02-21 05:05:00,
2013-02-20 21:10:00,39.5,36.5,30.05,East,97,0.0,4.0,89,0.00,,,0.00,WUHU216DAVISVP2,2013-02-21 05:10:00,
2013-02-20 21:15:00,39.6,36.6,30.05,East,97,0.0,4.0,89,0.00,,,0.00,WUHU216DAVISVP2,2013-02-21 05:15:00,
2013-02-20 21:20:00,40.0,37.3,30.05,East,97,0.0,2.0,90,0.00,,,0.00,WUHU216DAVISVP2,2013-02-21 05:20:00,
2013-02-20 21:25:00,39.3,36.3,30.05,East,97,0.0,2.0,89,0.00,,,0.00,WUHU216DAVISVP2,2013-02-21 05:25:00,
2013-02-20 21:30:00,38.7,35.7,30.06,East,97,0.0,0.0,89,0.00,,,0.00,WUHU216DAVISVP2,2013-02-21 05:30:00,
2013-02-20 21:35:00,38.5,35.8,30.06,East,97,0.0,0.0,90,0.00,,,0.00,WUHU216DAVISVP2,2013-02-21 05:35:00,
2013-02-20 21:40:00,38.7,36.3,30.06,East,97,0.0,0.0,91,0.00,,,0.00,WUHU216DAVISVP2,2013-02-21 05:40:00,
2013-02-20 21:45:00,38.4,36.0,30.07,East,97,0.0,0.0,91,0.00,,,0.00,WUHU216DAVISVP2,2013-02-21 05:45:00,
2013-02-20 21:50:00,38.1,35.7,30.07,East,97,0.0,0.0,91,0.00,,,0.00,WUHU216DAVISVP2,2013-02-21 05:50:00,
2013-02-20 21:56:00,38.1,35.7,30.07,East,97,0.0,0.0,91,0.00,,,0.00,WUHU216DAVISVP2,2013-02-21 05:56:00,
2013-02-20 22:01:00,38.0,35.6,30.07,East,97,0.0,0.0,91,0.00,,,0.00,WUHU216DAVISVP2,2013-02-21 06:01:00,
2013-02-20 22:06:00,38.2,36.0,30.07,East,97,1.0,2.0,92,0.00,,,0.00,WUHU216DAVISVP2,2013-02-21 06:06:00,
2013-02-20 22:11:00,37.9,35.5,30.07,East,97,0.0,2.0,91,0.00,,,0.00,WUHU216DAVISVP2,2013-02-21 06:11:00,
2013-02-20 22:16:00,38.3,36.1,30.07,East,97,0.0,2.0,92,0.00,,,0.00,WUHU216DAVISVP2,2013-02-21 06:16:00,
2013-02-20 22:21:00,38.0,35.6,30.07,East,97,0.0,1.0,91,0.00,,,0.00,WUHU216DAVISVP2,2013-02-21 06:21:00,
2013-02-20 22:26:00,38.1,35.9,30.07,East,97,0.0,0.0,92,0.00,,,0.00,WUHU216DAVISVP2,2013-02-21 06:26:00,
2013-02-20 22:31:00,37.8,35.4,30.07,East,97,0.0,0.0,91,0.00,,,0.00,WUHU216DAVISVP2,2013-02-21 06:31:00,
2013-02-20 22:36:00,37.7,35.5,30.07,East,97,1.0,1.0,92,0.00,,,0.00,WUHU216DAVISVP2,2013-02-21 06:36:00,
2013-02-20 22:41:00,37.7,35.5,30.07,East,97,0.0,1.0,92,0.00,,,0.00,WUHU216DAVISVP2,2013-02-21 06:41:00,
2013-02-20 22:46:00,37.5,35.3,30.07,East,97,0.0,4.0,92,0.00,,,0.00,WUHU216DAVISVP2,2013-02-21 06:46:00,
2013-02-20 22:51:00,37.8,35.6,30.07,East,97,2.0,4.0,92,0.00,,,0.00,WUHU216DAVISVP2,2013-02-21 06:51:00,
2013-02-20 22:56:00,38.5,36.3,30.07,East,97,0.0,2.0,92,0.00,,,0.00,WUHU216DAVISVP2,2013-02-21 06:56:00,
2013-02-20 23:01:00,38.7,36.5,30.08,East,97,0.0,2.0,92,0.00,,,0.00,WUHU216DAVISVP2,2013-02-21 07:01:00,
2013-02-20 23:06:00,38.6,36.2,30.08,East,97,1.0,1.0,91,0.00,,,0.00,WUHU216DAVISVP2,2013-02-21 07:06:00,
2013-02-20 23:11:00,38.4,36.0,30.08,East,97,0.0,2.0,91,0.00,,,0.00,WUHU216DAVISVP2,2013-02-21 07:11:00,
2013-02-20 23:16:00,38.7,36.3,30.08,East,97,0.0,2.0,91,0.00,,,0.00,WUHU216DAVISVP2,2013-02-21 07:16:00,
2013-02-20 23:21:00,38.5,36.1,30.08,East,97,0.0,2.0,91,0.00,,,0.00,WUHU216DAVISVP2,2013-02-21 07:21:00,
2013-02-20 23:26:00,38.2,35.8,30.08,East,97,2.0,2.0,91,0.00,,,0.00,WUHU216DAVISVP2,2013-02-21 07:26:00,
2013-02-20 23:31:00,37.9,35.5,30.08,East,97,0.0,2.0,91,0.00,,,0.00,WUHU216DAVISVP2,2013-02-21 07:31:00,
2013-02-20 23:36:00,37.5,35.1,30.08,East,97,0.0,2.0,91,0.00,,,0.00,WUHU216DAVISVP2,2013-02-21 07:36:00,
2013-02-20 23:41:00,37.8,35.6,30.08,East,97,0.0,2.0,92,0.00,,,0.00,WUHU216DAVISVP2,2013-02-21 07:41:00,
2013-02-20 23:46:00,37.6,35.4,30.08,East,97,0.0,1.0,92,0.00,,,0.00,WUHU216DAVISVP2,2013-02-21 07:46:00,
2013-02-20 23:51:00,37.7,35.5,30.08,East,97,0.0,1.0,92,0.00,,,0.00,WUHU216DAVISVP2,2013-02-21 07:51:00,
2013-02-20 23:56:00,37.2,35.0,30.08,East,97,0.0,2.0,92,0.00,,,0.00,WUHU216DAVISVP2,2013-02-21 07:56:00,